Time,TemperatureF,DewpointF,PressureIn,WindDirection,WindDirectionDegrees,WindSpeedMPH,WindSpeedGustMPH,Humidity,HourlyPrecipIn,Conditions,Clouds,dailyrainin,SoftwareType,DateUTC
2013-01-30 00:03:00,23.8,19.4,29.74,NNE,13,7.0,13.0,83,0.00,,SKC,0.00,VWS V14.01,2013-01-30 06:03:00,
2013-01-30 00:08:00,23.8,19.4,29.74,NNE,16,7.0,13.0,83,0.00,,SKC,0.00,VWS V14.01,2013-01-30 06:08:00,
2013-01-30 00:13:00,23.8,19.7,29.74,NNE,23,9.0,13.0,84,0.00,,SKC,0.00,VWS V14.01,2013-01-30 06:13:00,
2013-01-30 00:18:00,23.8,19.4,29.74,NNE,14,1.0,13.0,83,0.00,,SKC,0.00,VWS V14.01,2013-01-30 06:18:00,
2013-01-30 00:23:00,23.8,19.1,29.74,NNE,32,4.0,10.0,82,0.00,,SKC,0.00,VWS V14.01,2013-01-30 06:23:00,
2013-01-30 00:28:00,23.8,18.8,29.74,NE,35,3.0,13.0,81,0.00,,SKC,0.00,VWS V14.01,2013-01-30 06:28:00,
2013-01-30 00:33:00,23.6,18.4,29.72,NNE,28,13.0,13.0,80,0.00,,SKC,0.00,VWS V14.01,2013-01-30 06:33:00,
2013-01-30 00:38:00,23.6,18.4,29.72,NNE,23,6.0,13.0,80,0.00,,SKC,0.00,VWS V14.01,2013-01-30 06:38:00,
2013-01-30 00:43:00,23.6,18.4,29.72,North,350,8.0,14.0,80,0.00,,SKC,0.00,VWS V14.01,2013-01-30 06:43:00,
2013-01-30 00:48:00,23.6,18.4,29.73,NNE,20,6.0,14.0,80,0.00,,SKC,0.00,VWS V14.01,2013-01-30 06:48:00,
2013-01-30 00:53:00,23.6,18.6,29.73,NNE,30,7.0,13.0,81,0.00,,SKC,0.00,VWS V14.01,2013-01-30 06:53:00,
2013-01-30 00:58:00,23.5,18.5,29.73,NNE,24,9.0,19.0,81,0.00,,SKC,0.00,VWS V14.01,2013-01-30 06:58:00,
2013-01-30 01:03:00,23.3,18.3,29.72,NNE,21,6.0,11.0,81,0.00,,SKC,0.00,VWS V14.01,2013-01-30 07:03:00,
2013-01-30 01:08:00,23.0,18.0,29.72,NNE,18,13.0,17.0,81,0.00,,SKC,0.00,VWS V14.01,2013-01-30 07:08:00,
2013-01-30 01:13:00,22.9,18.2,29.72,North,4,3.0,12.0,82,0.00,,SKC,0.00,VWS V14.01,2013-01-30 07:13:00,
2013-01-30 01:18:00,22.7,18.0,29.71,NNE,17,8.0,14.0,82,0.00,,SKC,0.00,VWS V14.01,2013-01-30 07:18:00,
2013-01-30 01:22:00,22.7,18.0,29.71,NNE,28,5.0,10.0,82,0.00,,SKC,0.00,VWS V14.01,2013-01-30 07:22:00,
2013-01-30 01:27:00,22.5,17.9,29.71,North,8,7.0,12.0,82,0.00,,SKC,0.00,VWS V14.01,2013-01-30 07:27:00,
2013-01-30 01:33:00,22.5,17.9,29.69,NNE,30,6.0,10.0,82,0.00,,SKC,0.00,VWS V14.01,2013-01-30 07:33:00,
2013-01-30 01:37:00,22.5,17.9,29.69,North,356,7.0,13.0,82,0.00,,SKC,0.00,VWS V14.01,2013-01-30 07:37:00,
2013-01-30 01:42:00,22.4,17.8,29.69,NNE,20,7.0,11.0,82,0.00,,SKC,0.00,VWS V14.01,2013-01-30 07:42:00,
2013-01-30 01:47:00,22.4,17.8,29.71,NNE,17,6.0,11.0,82,0.00,,SKC,0.00,VWS V14.01,2013-01-30 07:47:00,
2013-01-30 01:52:00,22.4,17.8,29.71,NNE,14,2.0,11.0,82,0.00,,SKC,0.00,VWS V14.01,2013-01-30 07:52:00,
2013-01-30 01:57:00,22.2,17.8,29.71,North,10,2.0,11.0,83,0.00,,SKC,0.00,VWS V14.01,2013-01-30 07:57:00,
2013-01-30 02:02:00,22.2,17.8,29.70,NNE,21,6.0,10.0,83,0.00,,SKC,0.00,VWS V14.01,2013-01-30 08:02:00,
2013-01-30 02:07:00,22.1,17.7,29.70,NNE,30,5.0,10.0,83,0.00,,SKC,0.00,VWS V14.01,2013-01-30 08:07:00,
2013-01-30 02:12:00,22.1,17.5,29.70,NNE,24,4.0,10.0,82,0.00,,SKC,0.00,VWS V14.01,2013-01-30 08:12:00,
2013-01-30 02:17:00,21.9,17.3,29.71,North,0,4.0,10.0,82,0.00,,SKC,0.00,VWS V14.01,2013-01-30 08:17:00,
2013-01-30 02:22:00,21.4,16.8,29.71,North,357,9.0,13.0,82,0.00,,SKC,0.00,VWS V14.01,2013-01-30 08:22:00,
2013-01-30 02:27:00,21.1,16.5,29.71,North,0,7.0,14.0,82,0.00,,SKC,0.00,VWS V14.01,2013-01-30 08:27:00,
2013-01-30 02:32:00,20.6,16.3,29.71,North,359,5.0,12.0,83,0.00,,SKC,0.00,VWS V14.01,2013-01-30 08:32:00,
2013-01-30 02:37:00,20.5,16.2,29.71,North,0,7.0,14.0,83,0.00,,SKC,0.00,VWS V14.01,2013-01-30 08:37:00,
2013-01-30 02:42:00,20.5,16.2,29.71,North,359,4.0,7.0,83,0.00,,SKC,0.00,VWS V14.01,2013-01-30 08:42:00,
2013-01-30 02:47:00,20.5,16.2,29.71,NNE,21,10.0,10.0,83,0.00,,SKC,0.00,VWS V14.01,2013-01-30 08:47:00,
2013-01-30 02:52:00,20.3,16.2,29.71,North,352,6.0,7.0,84,0.00,,SKC,0.00,VWS V14.01,2013-01-30 08:52:00,
2013-01-30 02:57:00,20.2,16.1,29.71,North,359,6.0,9.0,84,0.00,,SKC,0.00,VWS V14.01,2013-01-30 08:57:00,
2013-01-30 03:02:00,19.9,15.9,29.72,North,352,7.0,10.0,84,0.00,,SKC,0.00,VWS V14.01,2013-01-30 09:02:00,
2013-01-30 03:07:00,19.7,15.4,29.72,North,359,6.0,11.0,83,0.00,,SKC,0.00,VWS V14.01,2013-01-30 09:07:00,
2013-01-30 03:12:00,19.5,15.2,29.72,North,0,6.0,13.0,83,0.00,,SKC,0.00,VWS V14.01,2013-01-30 09:12:00,
2013-01-30 03:17:00,19.4,15.4,29.72,North,0,6.0,17.0,84,0.00,,SKC,0.00,VWS V14.01,2013-01-30 09:17:00,
2013-01-30 03:22:00,19.4,15.1,29.72,North,0,6.0,7.0,83,0.00,,SKC,0.00,VWS V14.01,2013-01-30 09:22:00,
2013-01-30 03:27:00,19.2,15.2,29.72,North,0,5.0,10.0,84,0.00,,SKC,0.00,VWS V14.01,2013-01-30 09:27:00,
2013-01-30 03:32:00,19.1,14.8,29.72,NNW,339,5.0,13.0,83,0.00,,SKC,0.00,VWS V14.01,2013-01-30 09:32:00,
2013-01-30 03:37:00,18.8,14.5,29.72,North,0,7.0,16.0,83,0.00,,SKC,0.00,VWS V14.01,2013-01-30 09:37:00,
2013-01-30 03:42:00,18.6,14.3,29.72,North,0,5.0,10.0,83,0.00,,SKC,0.00,VWS V14.01,2013-01-30 09:42:00,
2013-01-30 03:47:00,18.4,14.1,29.72,North,354,6.0,10.0,83,0.00,,SKC,0.00,VWS V14.01,2013-01-30 09:47:00,
2013-01-30 03:52:00,18.1,14.1,29.72,NNW,340,5.0,11.0,84,0.00,,SKC,0.00,VWS V14.01,2013-01-30 09:52:00,
2013-01-30 03:57:00,17.8,13.8,29.72,North,0,7.0,11.0,84,0.00,,SKC,0.00,VWS V14.01,2013-01-30 09:57:00,
2013-01-30 04:02:00,17.8,13.8,29.72,North,1,5.0,11.0,84,0.00,,SKC,0.00,VWS V14.01,2013-01-30 10:02:00,
2013-01-30 04:07:00,17.7,13.7,29.72,North,0,3.0,11.0,84,0.00,,SKC,0.00,VWS V14.01,2013-01-30 10:07:00,
2013-01-30 04:12:00,17.5,13.2,29.72,North,359,5.0,8.0,83,0.00,,SKC,0.00,VWS V14.01,2013-01-30 10:12:00,
2013-01-30 04:17:00,17.3,13.0,29.73,North,353,11.0,11.0,83,0.00,,SKC,0.00,VWS V14.01,2013-01-30 10:17:00,
2013-01-30 04:22:00,17.2,12.9,29.73,North,3,7.0,11.0,83,0.00,,SKC,0.00,VWS V14.01,2013-01-30 10:22:00,
2013-01-30 04:27:00,17.0,12.7,29.73,North,359,8.0,12.0,83,0.00,,SKC,0.00,VWS V14.01,2013-01-30 10:27:00,
2013-01-30 04:32:00,16.9,12.6,29.73,North,0,6.0,10.0,83,0.00,,SKC,0.00,VWS V14.01,2013-01-30 10:32:00,
2013-01-30 04:37:00,16.7,12.4,29.73,North,4,4.0,14.0,83,0.00,,SKC,0.00,VWS V14.01,2013-01-30 10:37:00,
2013-01-30 04:42:00,16.4,12.1,29.73,North,0,10.0,12.0,83,0.00,,SKC,0.00,VWS V14.01,2013-01-30 10:42:00,
2013-01-30 04:47:00,16.2,11.7,29.73,North,0,7.0,13.0,82,0.00,,SKC,0.00,VWS V14.01,2013-01-30 10:47:00,
2013-01-30 04:52:00,16.1,11.6,29.73,North,0,11.0,16.0,82,0.00,,SKC,0.00,VWS V14.01,2013-01-30 10:52:00,
2013-01-30 04:57:00,16.1,11.6,29.73,North,3,11.0,16.0,82,0.00,,SKC,0.00,VWS V14.01,2013-01-30 10:57:00,
2013-01-30 05:02:00,15.7,11.2,29.73,North,357,8.0,10.0,82,0.00,,SKC,0.00,VWS V14.01,2013-01-30 11:02:00,
2013-01-30 05:07:00,15.6,11.1,29.73,NNE,23,3.0,12.0,82,0.00,,SKC,0.00,VWS V14.01,2013-01-30 11:07:00,
2013-01-30 05:12:00,15.6,10.8,29.73,North,4,8.0,18.0,81,0.00,,SKC,0.00,VWS V14.01,2013-01-30 11:12:00,
2013-01-30 05:17:00,15.4,10.6,29.73,North,0,6.0,18.0,81,0.00,,SKC,0.00,VWS V14.01,2013-01-30 11:17:00,
2013-01-30 05:22:00,15.1,10.3,29.73,North,1,7.0,11.0,81,0.00,,SKC,0.00,VWS V14.01,2013-01-30 11:22:00,
2013-01-30 05:27:00,14.9,10.4,29.73,North,357,5.0,14.0,82,0.00,,SKC,0.00,VWS V14.01,2013-01-30 11:27:00,
2013-01-30 05:32:00,14.9,10.4,29.72,North,354,5.0,8.0,82,0.00,,SKC,0.00,VWS V14.01,2013-01-30 11:32:00,
2013-01-30 05:37:00,14.8,10.0,29.72,North,4,7.0,11.0,81,0.00,,SKC,0.00,VWS V14.01,2013-01-30 11:37:00,
2013-01-30 05:42:00,14.6,9.8,29.72,North,0,7.0,16.0,81,0.00,,SKC,0.00,VWS V14.01,2013-01-30 11:42:00,
2013-01-30 05:47:00,14.4,9.6,29.72,North,357,5.0,16.0,81,0.00,,SKC,0.00,VWS V14.01,2013-01-30 11:47:00,
2013-01-30 05:52:00,14.4,9.6,29.72,North,0,5.0,12.0,81,0.00,,SKC,0.00,VWS V14.01,2013-01-30 11:52:00,
2013-01-30 05:57:00,14.3,9.6,29.72,North,359,6.0,12.0,81,0.00,,SKC,0.00,VWS V14.01,2013-01-30 11:57:00,
2013-01-30 06:02:00,14.1,9.4,29.72,North,352,10.0,14.0,81,0.00,,SKC,0.00,VWS V14.01,2013-01-30 12:02:00,
2013-01-30 06:07:00,14.1,9.4,29.72,North,359,7.0,16.0,81,0.00,,SKC,0.00,VWS V14.01,2013-01-30 12:07:00,
2013-01-30 06:12:00,14.0,9.3,29.72,North,359,5.0,10.0,81,0.00,,SKC,0.00,VWS V14.01,2013-01-30 12:12:00,
2013-01-30 06:17:00,14.0,9.0,29.72,North,1,3.0,12.0,80,0.00,,SKC,0.00,VWS V14.01,2013-01-30 12:17:00,
2013-01-30 06:22:00,14.0,9.0,29.72,North,7,4.0,10.0,80,0.00,,SKC,0.00,VWS V14.01,2013-01-30 12:22:00,
2013-01-30 06:27:00,13.8,9.1,29.72,North,359,7.0,11.0,81,0.00,,SKC,0.00,VWS V14.01,2013-01-30 12:27:00,
2013-01-30 06:32:00,13.6,8.6,29.72,North,0,4.0,11.0,80,0.00,,SKC,0.00,VWS V14.01,2013-01-30 12:32:00,
2013-01-30 06:37:00,13.6,8.6,29.72,North,356,5.0,11.0,80,0.00,,SKC,0.00,VWS V14.01,2013-01-30 12:37:00,
2013-01-30 06:42:00,13.6,8.6,29.72,North,0,3.0,5.0,80,0.00,,SKC,0.00,VWS V14.01,2013-01-30 12:42:00,
2013-01-30 06:47:00,13.5,8.5,29.72,North,350,6.0,11.0,80,0.00,,SKC,0.00,VWS V14.01,2013-01-30 12:47:00,
2013-01-30 06:52:00,13.3,8.3,29.72,North,0,11.0,12.0,80,0.00,,SKC,0.00,VWS V14.01,2013-01-30 12:52:00,
2013-01-30 06:57:00,13.3,8.3,29.72,North,0,6.0,13.0,80,0.00,,SKC,0.00,VWS V14.01,2013-01-30 12:57:00,
2013-01-30 07:02:00,13.1,8.1,29.72,North,0,5.0,7.0,80,0.00,,SKC,0.00,VWS V14.01,2013-01-30 13:02:00,
2013-01-30 07:07:00,13.1,8.1,29.72,North,0,6.0,11.0,80,0.00,,SKC,0.00,VWS V14.01,2013-01-30 13:07:00,
2013-01-30 07:12:00,13.1,8.1,29.72,North,359,11.0,12.0,80,0.00,,SKC,0.00,VWS V14.01,2013-01-30 13:12:00,
2013-01-30 07:17:00,13.1,8.1,29.72,North,359,5.0,12.0,80,0.00,,SKC,0.00,VWS V14.01,2013-01-30 13:17:00,
2013-01-30 07:22:00,12.9,7.6,29.72,North,0,8.0,16.0,79,0.00,,SKC,0.00,VWS V14.01,2013-01-30 13:22:00,
2013-01-30 07:27:00,12.9,7.9,29.72,North,11,4.0,16.0,80,0.00,,SKC,0.00,VWS V14.01,2013-01-30 13:27:00,
2013-01-30 07:32:00,12.9,7.9,29.71,North,356,6.0,8.0,80,0.00,,SKC,0.00,VWS V14.01,2013-01-30 13:32:00,
2013-01-30 07:37:00,12.8,7.5,29.71,North,0,12.0,15.0,79,0.00,,SKC,0.00,VWS V14.01,2013-01-30 13:37:00,
2013-01-30 07:42:00,12.6,7.3,29.71,North,0,8.0,12.0,79,0.00,,SKC,0.00,VWS V14.01,2013-01-30 13:42:00,
2013-01-30 07:47:00,12.6,7.3,29.70,North,359,12.0,16.0,79,0.00,,SKC,0.00,VWS V14.01,2013-01-30 13:47:00,
2013-01-30 07:52:00,12.6,7.3,29.70,North,7,3.0,8.0,79,0.00,,SKC,0.00,VWS V14.01,2013-01-30 13:52:00,
2013-01-30 07:57:00,12.4,7.1,29.70,North,0,6.0,11.0,79,0.00,,SKC,0.00,VWS V14.01,2013-01-30 13:57:00,
2013-01-30 08:02:00,12.4,7.1,29.71,NNE,13,6.0,12.0,79,0.00,,SKC,0.00,VWS V14.01,2013-01-30 14:02:00,
2013-01-30 08:07:00,12.3,7.0,29.71,North,356,5.0,16.0,79,0.00,,SKC,0.00,VWS V14.01,2013-01-30 14:07:00,
2013-01-30 08:12:00,12.1,6.6,29.71,North,359,8.0,14.0,78,0.00,,SKC,0.00,VWS V14.01,2013-01-30 14:12:00,
2013-01-30 08:17:00,12.1,6.6,29.71,North,349,13.0,14.0,78,0.00,,SKC,0.00,VWS V14.01,2013-01-30 14:17:00,
2013-01-30 08:22:00,12.1,6.6,29.71,North,0,6.0,13.0,78,0.00,,SKC,0.00,VWS V14.01,2013-01-30 14:22:00,
2013-01-30 08:27:00,12.1,6.6,29.71,North,4,4.0,13.0,78,0.00,,SKC,0.00,VWS V14.01,2013-01-30 14:27:00,
2013-01-30 08:32:00,12.1,6.6,29.72,North,0,3.0,11.0,78,0.00,,SKC,0.00,VWS V14.01,2013-01-30 14:32:00,
2013-01-30 08:37:00,12.1,6.6,29.72,North,354,6.0,11.0,78,0.00,,SKC,0.00,VWS V14.01,2013-01-30 14:37:00,
2013-01-30 08:42:00,12.1,6.6,29.72,NNW,347,2.0,7.0,78,0.00,,SKC,0.00,VWS V14.01,2013-01-30 14:42:00,
2013-01-30 08:47:00,12.1,6.3,29.72,NE,38,4.0,13.0,77,0.00,,SKC,0.00,VWS V14.01,2013-01-30 14:47:00,
2013-01-30 08:52:00,12.1,6.3,29.72,North,0,3.0,12.0,77,0.00,,SKC,0.00,VWS V14.01,2013-01-30 14:52:00,
2013-01-30 08:57:00,11.9,6.1,29.72,NNE,20,3.0,13.0,77,0.00,,SKC,0.00,VWS V14.01,2013-01-30 14:57:00,
2013-01-30 09:02:00,12.1,6.3,29.72,North,0,3.0,10.0,77,0.00,,SKC,0.00,VWS V14.01,2013-01-30 15:02:00,
2013-01-30 09:07:00,12.1,6.3,29.72,North,3,8.0,12.0,77,0.00,,SKC,0.00,VWS V14.01,2013-01-30 15:07:00,
2013-01-30 09:12:00,12.1,6.0,29.72,NW,325,5.0,7.0,76,0.00,,SKC,0.00,VWS V14.01,2013-01-30 15:12:00,
2013-01-30 09:17:00,12.1,6.0,29.74,North,0,7.0,12.0,76,0.00,,SKC,0.00,VWS V14.01,2013-01-30 15:17:00,
2013-01-30 09:22:00,12.1,6.0,29.74,North,4,7.0,10.0,76,0.00,,SKC,0.00,VWS V14.01,2013-01-30 15:22:00,
2013-01-30 09:27:00,12.1,5.7,29.74,North,11,5.0,13.0,75,0.00,,SKC,0.00,VWS V14.01,2013-01-30 15:27:00,
2013-01-30 09:32:00,12.3,5.9,29.74,North,0,4.0,10.0,75,0.00,,SKC,0.00,VWS V14.01,2013-01-30 15:32:00,
2013-01-30 09:37:00,12.4,6.0,29.74,North,0,5.0,12.0,75,0.00,,SKC,0.00,VWS V14.01,2013-01-30 15:37:00,
2013-01-30 09:42:00,12.4,6.0,29.74,NNE,25,8.0,10.0,75,0.00,,SKC,0.00,VWS V14.01,2013-01-30 15:42:00,
2013-01-30 09:47:00,12.4,6.0,29.74,North,0,9.0,10.0,75,0.00,,SKC,0.00,VWS V14.01,2013-01-30 15:47:00,
2013-01-30 09:52:00,12.4,6.0,29.74,North,0,11.0,14.0,75,0.00,,SKC,0.00,VWS V14.01,2013-01-30 15:52:00,
2013-01-30 09:57:00,12.4,6.0,29.74,North,0,13.0,14.0,75,0.00,,SKC,0.00,VWS V14.01,2013-01-30 15:57:00,
2013-01-30 10:02:00,12.4,6.0,29.74,NNE,31,6.0,13.0,75,0.00,,SKC,0.00,VWS V14.01,2013-01-30 16:02:00,
2013-01-30 10:07:00,12.6,5.9,29.74,North,357,17.0,17.0,74,0.00,,SKC,0.00,VWS V14.01,2013-01-30 16:07:00,
2013-01-30 10:12:00,12.6,6.2,29.74,NNE,13,3.0,11.0,75,0.00,,SKC,0.00,VWS V14.01,2013-01-30 16:12:00,
2013-01-30 10:17:00,12.6,6.2,29.73,North,0,5.0,15.0,75,0.00,,SKC,0.00,VWS V14.01,2013-01-30 16:17:00,
2013-01-30 10:22:00,12.8,6.4,29.73,North,1,1.0,11.0,75,0.00,,SKC,0.00,VWS V14.01,2013-01-30 16:22:00,
2013-01-30 10:27:00,12.8,6.4,29.73,North,8,3.0,16.0,75,0.00,,SKC,0.00,VWS V14.01,2013-01-30 16:27:00,
2013-01-30 10:32:00,12.6,6.2,29.73,North,11,6.0,17.0,75,0.00,,SKC,0.00,VWS V14.01,2013-01-30 16:32:00,
2013-01-30 10:37:00,12.6,5.9,29.73,NNE,32,5.0,17.0,74,0.00,,SKC,0.00,VWS V14.01,2013-01-30 16:37:00,
2013-01-30 10:42:00,12.8,6.4,29.73,North,0,7.0,12.0,75,0.00,,SKC,0.00,VWS V14.01,2013-01-30 16:42:00,
2013-01-30 10:47:00,12.8,6.1,29.73,North,0,11.0,18.0,74,0.00,,SKC,0.00,VWS V14.01,2013-01-30 16:47:00,
2013-01-30 10:52:00,12.8,6.1,29.73,North,1,6.0,13.0,74,0.00,,SKC,0.00,VWS V14.01,2013-01-30 16:52:00,
2013-01-30 10:57:00,12.9,5.9,29.73,North,7,10.0,17.0,73,0.00,,SKC,0.00,VWS V14.01,2013-01-30 16:57:00,
2013-01-30 11:02:00,12.9,5.9,29.73,North,359,5.0,14.0,73,0.00,,SKC,0.00,VWS V14.01,2013-01-30 17:02:00,
2013-01-30 11:07:00,13.3,6.9,29.73,North,354,6.0,14.0,75,0.00,,SKC,0.00,VWS V14.01,2013-01-30 17:07:00,
2013-01-30 11:12:00,13.3,6.6,29.73,North,8,3.0,13.0,74,0.00,,SKC,0.00,VWS V14.01,2013-01-30 17:12:00,
2013-01-30 11:17:00,13.3,6.3,29.74,North,0,9.0,17.0,73,0.00,,SKC,0.00,VWS V14.01,2013-01-30 17:17:00,
2013-01-30 11:22:00,13.3,6.0,29.74,North,10,11.0,20.0,72,0.00,,SKC,0.00,VWS V14.01,2013-01-30 17:22:00,
2013-01-30 11:27:00,13.3,6.3,29.74,North,359,5.0,20.0,73,0.00,,SKC,0.00,VWS V14.01,2013-01-30 17:27:00,
2013-01-30 11:32:00,13.5,6.2,29.73,NNE,25,9.0,18.0,72,0.00,,SKC,0.00,VWS V14.01,2013-01-30 17:32:00,
2013-01-30 11:37:00,13.5,6.2,29.73,North,0,10.0,18.0,72,0.00,,SKC,0.00,VWS V14.01,2013-01-30 17:37:00,
2013-01-30 11:41:00,13.6,6.6,29.73,NNE,16,7.0,13.0,73,0.00,,SKC,0.00,VWS V14.01,2013-01-30 17:41:00,
2013-01-30 11:46:00,13.6,6.6,29.73,North,0,11.0,14.0,73,0.00,,SKC,0.00,VWS V14.01,2013-01-30 17:46:00,
2013-01-30 11:51:00,13.8,6.8,29.73,North,3,5.0,8.0,73,0.00,,SKC,0.00,VWS V14.01,2013-01-30 17:51:00,
2013-01-30 11:56:00,13.5,5.9,29.73,North,356,6.0,20.0,71,0.00,,SKC,0.00,VWS V14.01,2013-01-30 17:56:00,
2013-01-30 12:01:00,13.6,6.3,29.72,North,0,6.0,10.0,72,0.00,,SKC,0.00,VWS V14.01,2013-01-30 18:01:00,
2013-01-30 12:06:00,13.1,5.8,29.72,North,0,11.0,16.0,72,0.00,,SKC,0.00,VWS V14.01,2013-01-30 18:06:00,
2013-01-30 12:11:00,13.1,5.5,29.72,North,0,16.0,17.0,71,0.00,,SKC,0.00,VWS V14.01,2013-01-30 18:11:00,
2013-01-30 12:16:00,12.8,4.9,29.72,North,6,8.0,24.0,70,0.00,,SKC,0.00,VWS V14.01,2013-01-30 18:16:00,
2013-01-30 12:21:00,12.8,4.9,29.72,North,0,12.0,15.0,70,0.00,,SKC,0.00,VWS V14.01,2013-01-30 18:21:00,
2013-01-30 12:26:00,13.1,5.2,29.72,North,0,9.0,17.0,70,0.00,,SKC,0.00,VWS V14.01,2013-01-30 18:26:00,
2013-01-30 12:31:00,12.9,5.3,29.72,North,3,14.0,17.0,71,0.00,,SKC,0.00,VWS V14.01,2013-01-30 18:31:00,
2013-01-30 12:36:00,12.8,5.2,29.72,North,357,13.0,21.0,71,0.00,,SKC,0.00,VWS V14.01,2013-01-30 18:36:00,
2013-01-30 12:41:00,12.6,4.4,29.72,NNE,21,11.0,21.0,69,0.00,,SKC,0.00,VWS V14.01,2013-01-30 18:41:00,
2013-01-30 12:46:00,12.9,4.7,29.71,North,0,16.0,21.0,69,0.00,,SKC,0.00,VWS V14.01,2013-01-30 18:46:00,
2013-01-30 12:51:00,13.1,5.2,29.71,North,4,4.0,8.0,70,0.00,,SKC,0.00,VWS V14.01,2013-01-30 18:51:00,
2013-01-30 12:56:00,13.1,4.8,29.71,North,8,5.0,17.0,69,0.00,,SKC,0.00,VWS V14.01,2013-01-30 18:56:00,
2013-01-30 13:01:00,13.3,5.4,29.71,North,1,11.0,14.0,70,0.00,,SKC,0.00,VWS V14.01,2013-01-30 19:01:00,
2013-01-30 13:06:00,13.5,5.9,29.71,North,0,6.0,17.0,71,0.00,,SKC,0.00,VWS V14.01,2013-01-30 19:06:00,
2013-01-30 13:11:00,13.5,5.6,29.71,North,356,8.0,12.0,70,0.00,,SKC,0.00,VWS V14.01,2013-01-30 19:11:00,
2013-01-30 13:16:00,13.6,5.7,29.71,NE,45,8.0,13.0,70,0.00,,SKC,0.00,VWS V14.01,2013-01-30 19:16:00,
2013-01-30 13:21:00,13.8,6.2,29.71,North,1,12.0,19.0,71,0.00,,SKC,0.00,VWS V14.01,2013-01-30 19:21:00,
2013-01-30 13:26:00,14.0,7.0,29.71,North,8,5.0,19.0,73,0.00,,SKC,0.00,VWS V14.01,2013-01-30 19:26:00,
2013-01-30 13:31:00,14.1,6.8,29.71,North,1,8.0,14.0,72,0.00,,SKC,0.00,VWS V14.01,2013-01-30 19:31:00,
2013-01-30 13:36:00,14.0,7.0,29.71,North,3,3.0,14.0,73,0.00,,SKC,0.00,VWS V14.01,2013-01-30 19:36:00,
2013-01-30 13:41:00,14.0,7.0,29.71,North,0,8.0,16.0,73,0.00,,SKC,0.00,VWS V14.01,2013-01-30 19:41:00,
2013-01-30 13:46:00,13.6,6.6,29.71,North,359,8.0,17.0,73,0.00,,SKC,0.00,VWS V14.01,2013-01-30 19:46:00,
2013-01-30 13:51:00,13.6,6.6,29.71,North,356,7.0,10.0,73,0.00,,SKC,0.00,VWS V14.01,2013-01-30 19:51:00,
2013-01-30 13:56:00,13.8,6.8,29.71,North,10,12.0,18.0,73,0.00,,SKC,0.00,VWS V14.01,2013-01-30 19:56:00,
2013-01-30 14:01:00,13.8,6.5,29.71,NNW,344,10.0,12.0,72,0.00,,SKC,0.00,VWS V14.01,2013-01-30 20:01:00,
2013-01-30 14:06:00,13.6,6.3,29.71,North,0,6.0,18.0,72,0.00,,SKC,0.00,VWS V14.01,2013-01-30 20:06:00,
2013-01-30 14:11:00,13.6,6.0,29.71,NNW,340,5.0,13.0,71,0.00,,SKC,0.00,VWS V14.01,2013-01-30 20:11:00,
2013-01-30 14:16:00,13.8,6.5,29.71,North,0,6.0,13.0,72,0.00,,SKC,0.00,VWS V14.01,2013-01-30 20:16:00,
2013-01-30 14:21:00,13.6,5.7,29.71,North,350,5.0,17.0,70,0.00,,SKC,0.00,VWS V14.01,2013-01-30 20:21:00,
2013-01-30 14:26:00,13.5,5.9,29.71,North,357,6.0,17.0,71,0.00,,SKC,0.00,VWS V14.01,2013-01-30 20:26:00,
2013-01-30 14:31:00,13.8,6.5,29.71,North,350,11.0,11.0,72,0.00,,SKC,0.00,VWS V14.01,2013-01-30 20:31:00,
2013-01-30 14:36:00,13.3,5.4,29.71,North,359,8.0,17.0,70,0.00,,SKC,0.00,VWS V14.01,2013-01-30 20:36:00,
2013-01-30 14:41:00,13.3,5.7,29.71,North,0,10.0,16.0,71,0.00,,SKC,0.00,VWS V14.01,2013-01-30 20:41:00,
2013-01-30 14:46:00,13.3,6.0,29.72,North,356,7.0,16.0,72,0.00,,SKC,0.00,VWS V14.01,2013-01-30 20:46:00,
2013-01-30 14:51:00,13.5,6.2,29.72,North,0,4.0,6.0,72,0.00,,SKC,0.00,VWS V14.01,2013-01-30 20:51:00,
2013-01-30 14:56:00,13.3,6.9,29.72,NNW,343,7.0,11.0,75,0.00,,SKC,0.00,VWS V14.01,2013-01-30 20:56:00,
2013-01-30 15:01:00,12.9,5.9,29.72,North,357,5.0,17.0,73,0.00,,SKC,0.00,VWS V14.01,2013-01-30 21:01:00,
2013-01-30 15:06:00,12.9,6.2,29.72,NNW,335,5.0,17.0,74,0.00,,SKC,0.00,VWS V14.01,2013-01-30 21:06:00,
2013-01-30 15:11:00,12.3,5.9,29.72,NW,320,3.0,13.0,75,0.00,,SKC,0.00,VWS V14.01,2013-01-30 21:11:00,
2013-01-30 15:16:00,12.1,5.7,29.73,NW,325,9.0,19.0,75,0.00,,SKC,0.00,VWS V14.01,2013-01-30 21:16:00,
2013-01-30 15:21:00,12.1,5.7,29.73,NNW,337,7.0,15.0,75,0.00,,SKC,0.00,VWS V14.01,2013-01-30 21:21:00,
2013-01-30 15:26:00,11.9,5.5,29.73,North,349,6.0,17.0,75,0.00,,SKC,0.00,VWS V14.01,2013-01-30 21:26:00,
2013-01-30 15:31:00,11.9,5.2,29.73,North,0,7.0,8.0,74,0.00,,SKC,0.00,VWS V14.01,2013-01-30 21:31:00,
2013-01-30 15:36:00,11.9,4.6,29.73,NW,320,14.0,17.0,72,0.00,,SKC,0.00,VWS V14.01,2013-01-30 21:36:00,
2013-01-30 15:41:00,11.9,4.6,29.73,NNW,332,5.0,7.0,72,0.00,,SKC,0.00,VWS V14.01,2013-01-30 21:41:00,
2013-01-30 15:46:00,11.7,4.1,29.73,North,356,6.0,15.0,71,0.00,,SKC,0.00,VWS V14.01,2013-01-30 21:46:00,
2013-01-30 15:51:00,11.9,4.0,29.73,NW,326,10.0,14.0,70,0.00,,SKC,0.00,VWS V14.01,2013-01-30 21:51:00,
2013-01-30 15:56:00,11.7,3.8,29.73,NW,325,16.0,17.0,70,0.00,,SKC,0.00,VWS V14.01,2013-01-30 21:56:00,
2013-01-30 16:01:00,11.6,3.7,29.73,NNW,340,6.0,17.0,70,0.00,,SKC,0.00,VWS V14.01,2013-01-30 22:01:00,
2013-01-30 16:06:00,11.6,4.0,29.73,North,359,5.0,17.0,71,0.00,,SKC,0.00,VWS V14.01,2013-01-30 22:06:00,
2013-01-30 16:11:00,11.6,4.0,29.73,NNW,343,5.0,8.0,71,0.00,,SKC,0.00,VWS V14.01,2013-01-30 22:11:00,
2013-01-30 16:16:00,11.4,3.5,29.74,NNW,342,3.0,18.0,70,0.00,,SKC,0.00,VWS V14.01,2013-01-30 22:16:00,
2013-01-30 16:21:00,11.2,3.7,29.74,North,359,7.0,16.0,71,0.00,,SKC,0.00,VWS V14.01,2013-01-30 22:21:00,
2013-01-30 16:26:00,11.2,4.0,29.74,North,359,7.0,16.0,72,0.00,,SKC,0.00,VWS V14.01,2013-01-30 22:26:00,
2013-01-30 16:31:00,11.2,4.2,29.74,North,349,4.0,4.0,73,0.00,,SKC,0.00,VWS V14.01,2013-01-30 22:31:00,
2013-01-30 16:36:00,11.2,4.0,29.74,North,0,5.0,10.0,72,0.00,,SKC,0.00,VWS V14.01,2013-01-30 22:36:00,
2013-01-30 16:41:00,11.2,4.0,29.74,North,357,2.0,7.0,72,0.00,,SKC,0.00,VWS V14.01,2013-01-30 22:41:00,
2013-01-30 16:46:00,11.1,3.8,29.75,North,359,3.0,11.0,72,0.00,,SKC,0.00,VWS V14.01,2013-01-30 22:46:00,
2013-01-30 16:51:00,10.9,4.0,29.75,NNW,347,5.0,9.0,73,0.00,,SKC,0.00,VWS V14.01,2013-01-30 22:51:00,
2013-01-30 16:56:00,10.9,4.0,29.75,North,0,5.0,12.0,73,0.00,,SKC,0.00,VWS V14.01,2013-01-30 22:56:00,
2013-01-30 17:01:00,10.9,4.2,29.75,NNW,347,2.0,3.0,74,0.00,,SKC,0.00,VWS V14.01,2013-01-30 23:01:00,
2013-01-30 17:06:00,10.7,4.1,29.75,North,0,5.0,11.0,74,0.00,,SKC,0.00,VWS V14.01,2013-01-30 23:06:00,
2013-01-30 17:11:00,10.7,4.3,29.75,North,0,1.0,5.0,75,0.00,,SKC,0.00,VWS V14.01,2013-01-30 23:11:00,
2013-01-30 17:16:00,10.5,3.6,29.75,North,359,6.0,14.0,73,0.00,,SKC,0.00,VWS V14.01,2013-01-30 23:16:00,
2013-01-30 17:21:00,10.5,3.6,29.75,North,350,5.0,9.0,73,0.00,,SKC,0.00,VWS V14.01,2013-01-30 23:21:00,
2013-01-30 17:26:00,10.5,3.9,29.75,North,0,2.0,9.0,74,0.00,,SKC,0.00,VWS V14.01,2013-01-30 23:26:00,
2013-01-30 17:31:00,10.4,3.8,29.76,North,357,7.0,8.0,74,0.00,,SKC,0.00,VWS V14.01,2013-01-30 23:31:00,
2013-01-30 17:36:00,10.2,3.3,29.76,North,354,7.0,14.0,73,0.00,,SKC,0.00,VWS V14.01,2013-01-30 23:36:00,
2013-01-30 17:41:00,10.2,3.3,29.76,North,359,2.0,8.0,73,0.00,,SKC,0.00,VWS V14.01,2013-01-30 23:41:00,
2013-01-30 17:46:00,10.2,3.3,29.76,NNE,20,3.0,11.0,73,0.00,,SKC,0.00,VWS V14.01,2013-01-30 23:46:00,
2013-01-30 17:51:00,10.2,3.3,29.76,North,4,8.0,8.0,73,0.00,,SKC,0.00,VWS V14.01,2013-01-30 23:51:00,
2013-01-30 17:56:00,10.0,3.4,29.76,NNW,344,1.0,9.0,74,0.00,,SKC,0.00,VWS V14.01,2013-01-30 23:56:00,
2013-01-30 18:01:00,9.9,3.3,29.76,NNW,332,4.0,8.0,74,0.00,,SKC,0.00,VWS V14.01,2013-01-31 00:01:00,
2013-01-30 18:06:00,9.9,3.0,29.76,NNW,340,12.0,14.0,73,0.00,,SKC,0.00,VWS V14.01,2013-01-31 00:06:00,
2013-01-30 18:11:00,9.9,3.0,29.76,North,349,2.0,6.0,73,0.00,,SKC,0.00,VWS V14.01,2013-01-31 00:11:00,
2013-01-30 18:16:00,9.7,2.8,29.76,North,0,6.0,11.0,73,0.00,,SKC,0.00,VWS V14.01,2013-01-31 00:16:00,
2013-01-30 18:21:00,9.5,2.6,29.76,NNW,340,2.0,5.0,73,0.00,,SKC,0.00,VWS V14.01,2013-01-31 00:21:00,
2013-01-30 18:26:00,9.5,2.6,29.76,NW,325,12.0,13.0,73,0.00,,SKC,0.00,VWS V14.01,2013-01-31 00:26:00,
2013-01-30 18:31:00,9.3,2.1,29.76,North,0,7.0,15.0,72,0.00,,SKC,0.00,VWS V14.01,2013-01-31 00:31:00,
2013-01-30 18:36:00,9.3,2.4,29.76,North,353,6.0,15.0,73,0.00,,SKC,0.00,VWS V14.01,2013-01-31 00:36:00,
2013-01-30 18:41:00,9.3,2.4,29.76,NW,319,10.0,10.0,73,0.00,,SKC,0.00,VWS V14.01,2013-01-31 00:41:00,
2013-01-30 18:46:00,9.2,2.3,29.76,North,356,3.0,12.0,73,0.00,,SKC,0.00,VWS V14.01,2013-01-31 00:46:00,
2013-01-30 18:51:00,9.2,2.3,29.76,NNW,343,10.0,13.0,73,0.00,,SKC,0.00,VWS V14.01,2013-01-31 00:51:00,
2013-01-30 18:56:00,9.2,2.6,29.76,NNW,344,3.0,13.0,74,0.00,,SKC,0.00,VWS V14.01,2013-01-31 00:56:00,
2013-01-30 19:01:00,9.2,2.0,29.76,North,0,17.0,17.0,72,0.00,,SKC,0.00,VWS V14.01,2013-01-31 01:01:00,
2013-01-30 19:06:00,9.0,1.8,29.76,North,1,7.0,17.0,72,0.00,,SKC,0.00,VWS V14.01,2013-01-31 01:06:00,
2013-01-30 19:11:00,9.0,1.5,29.76,NNW,333,6.0,11.0,71,0.00,,SKC,0.00,VWS V14.01,2013-01-31 01:11:00,
2013-01-30 19:15:00,8.8,1.6,29.77,North,359,2.0,11.0,72,0.00,,SKC,0.00,VWS V14.01,2013-01-31 01:15:00,
2013-01-30 19:20:00,8.8,1.6,29.77,NNE,13,10.0,12.0,72,0.00,,SKC,0.00,VWS V14.01,2013-01-31 01:20:00,
2013-01-30 19:25:00,8.6,1.1,29.77,North,353,4.0,13.0,71,0.00,,SKC,0.00,VWS V14.01,2013-01-31 01:25:00,
2013-01-30 19:30:00,8.4,0.9,29.77,North,356,7.0,10.0,71,0.00,,SKC,0.00,VWS V14.01,2013-01-31 01:30:00,
2013-01-30 19:35:00,8.3,0.6,29.77,North,359,8.0,13.0,70,0.00,,SKC,0.00,VWS V14.01,2013-01-31 01:35:00,
2013-01-30 19:40:00,8.3,0.6,29.77,North,0,8.0,10.0,70,0.00,,SKC,0.00,VWS V14.01,2013-01-31 01:40:00,
2013-01-30 19:45:00,8.1,0.4,29.77,NNW,347,6.0,10.0,70,0.00,,SKC,0.00,VWS V14.01,2013-01-31 01:45:00,
2013-01-30 19:50:00,8.1,0.4,29.77,NNW,343,4.0,6.0,70,0.00,,SKC,0.00,VWS V14.01,2013-01-31 01:50:00,
2013-01-30 19:55:00,7.9,0.2,29.77,NW,323,3.0,7.0,70,0.00,,SKC,0.00,VWS V14.01,2013-01-31 01:55:00,
2013-01-30 20:00:00,7.9,0.5,29.77,North,356,5.0,5.0,71,0.00,,SKC,0.00,VWS V14.01,2013-01-31 02:00:00,
2013-01-30 20:05:00,7.7,0.0,29.77,NNW,344,2.0,8.0,70,0.00,,SKC,0.00,VWS V14.01,2013-01-31 02:05:00,
2013-01-30 20:10:00,7.6,-0.1,29.77,North,349,5.0,10.0,70,0.00,,SKC,0.00,VWS V14.01,2013-01-31 02:10:00,
2013-01-30 20:15:00,7.6,-0.1,29.78,NNW,339,6.0,11.0,70,0.00,,SKC,0.00,VWS V14.01,2013-01-31 02:15:00,
2013-01-30 20:20:00,7.4,-0.3,29.78,North,0,7.0,14.0,70,0.00,,SKC,0.00,VWS V14.01,2013-01-31 02:20:00,
2013-01-30 20:25:00,7.4,-0.3,29.78,NNW,336,8.0,14.0,70,0.00,,SKC,0.00,VWS V14.01,2013-01-31 02:25:00,
2013-01-30 20:30:00,7.4,-0.6,29.78,NNW,337,6.0,12.0,69,0.00,,SKC,0.00,VWS V14.01,2013-01-31 02:30:00,
2013-01-30 20:35:00,7.2,-0.8,29.78,North,349,13.0,14.0,69,0.00,,SKC,0.00,VWS V14.01,2013-01-31 02:35:00,
2013-01-30 20:40:00,7.2,-0.8,29.78,North,350,8.0,13.0,69,0.00,,SKC,0.00,VWS V14.01,2013-01-31 02:40:00,
2013-01-30 20:45:00,7.0,-1.0,29.78,North,359,7.0,14.0,69,0.00,,SKC,0.00,VWS V14.01,2013-01-31 02:45:00,
2013-01-30 20:50:00,7.0,-1.0,29.78,North,0,6.0,9.0,69,0.00,,SKC,0.00,VWS V14.01,2013-01-31 02:50:00,
2013-01-30 20:55:00,7.0,-1.0,29.78,North,359,10.0,16.0,69,0.00,,SKC,0.00,VWS V14.01,2013-01-31 02:55:00,
2013-01-30 21:00:00,7.0,-1.0,29.78,North,0,7.0,13.0,69,0.00,,SKC,0.00,VWS V14.01,2013-01-31 03:00:00,
2013-01-30 21:05:00,6.9,-1.1,29.78,North,0,4.0,14.0,69,0.00,,SKC,0.00,VWS V14.01,2013-01-31 03:05:00,
2013-01-30 21:10:00,6.9,-1.1,29.78,NNW,330,5.0,6.0,69,0.00,,SKC,0.00,VWS V14.01,2013-01-31 03:10:00,
2013-01-30 21:15:00,6.9,-0.8,29.79,NNW,347,2.0,7.0,70,0.00,,SKC,0.00,VWS V14.01,2013-01-31 03:15:00,
2013-01-30 21:20:00,6.9,-0.8,29.79,North,349,3.0,5.0,70,0.00,,SKC,0.00,VWS V14.01,2013-01-31 03:20:00,
2013-01-30 21:25:00,6.9,-0.8,29.79,NNW,344,5.0,14.0,70,0.00,,SKC,0.00,VWS V14.01,2013-01-31 03:25:00,
2013-01-30 21:30:00,7.0,-0.7,29.79,North,359,3.0,6.0,70,0.00,,SKC,0.00,VWS V14.01,2013-01-31 03:30:00,
2013-01-30 21:35:00,7.0,-0.7,29.79,North,350,3.0,8.0,70,0.00,,SKC,0.00,VWS V14.01,2013-01-31 03:35:00,
2013-01-30 21:40:00,7.0,-0.7,29.79,North,353,2.0,3.0,70,0.00,,SKC,0.00,VWS V14.01,2013-01-31 03:40:00,
2013-01-30 21:45:00,7.0,-0.4,29.79,NNW,342,3.0,6.0,71,0.00,,SKC,0.00,VWS V14.01,2013-01-31 03:45:00,
2013-01-30 21:50:00,6.3,0.1,29.79,NNW,340,2.0,5.0,75,0.00,,SKC,0.00,VWS V14.01,2013-01-31 03:50:00,
2013-01-30 21:55:00,6.1,0.2,29.79,NNW,344,4.0,7.0,76,0.00,,SKC,0.00,VWS V14.01,2013-01-31 03:55:00,
2013-01-30 22:00:00,5.8,0.2,29.79,NW,311,2.0,8.0,77,0.00,,SKC,0.00,VWS V14.01,2013-01-31 04:00:00,
2013-01-30 22:05:00,5.4,-0.2,29.79,NW,315,5.0,11.0,77,0.00,,SKC,0.00,VWS V14.01,2013-01-31 04:05:00,
2013-01-30 22:10:00,5.0,-0.6,29.79,NW,326,1.0,5.0,77,0.00,,SKC,0.00,VWS V14.01,2013-01-31 04:10:00,
2013-01-30 22:15:00,4.8,-0.5,29.79,North,359,3.0,10.0,78,0.00,,SKC,0.00,VWS V14.01,2013-01-31 04:15:00,
2013-01-30 22:20:00,4.8,-0.5,29.79,NNW,339,4.0,4.0,78,0.00,,SKC,0.00,VWS V14.01,2013-01-31 04:20:00,
2013-01-30 22:25:00,4.7,-0.6,29.79,WNW,302,3.0,5.0,78,0.00,,SKC,0.00,VWS V14.01,2013-01-31 04:25:00,
2013-01-30 22:30:00,4.5,-0.8,29.79,NNW,337,3.0,4.0,78,0.00,,SKC,0.00,VWS V14.01,2013-01-31 04:30:00,
2013-01-30 22:35:00,4.5,-0.8,29.79,NNW,340,2.0,6.0,78,0.00,,SKC,0.00,VWS V14.01,2013-01-31 04:35:00,
2013-01-30 22:40:00,4.3,-1.0,29.79,North,356,1.0,3.0,78,0.00,,SKC,0.00,VWS V14.01,2013-01-31 04:40:00,
2013-01-30 22:45:00,4.3,-1.0,29.80,North,349,2.0,11.0,78,0.00,,SKC,0.00,VWS V14.01,2013-01-31 04:45:00,
2013-01-30 22:50:00,4.3,-1.0,29.80,NW,326,2.0,3.0,78,0.00,,SKC,0.00,VWS V14.01,2013-01-31 04:50:00,
2013-01-30 22:55:00,4.3,-1.0,29.80,NNW,337,10.0,11.0,78,0.00,,SKC,0.00,VWS V14.01,2013-01-31 04:55:00,
2013-01-30 23:00:00,4.3,-1.0,29.80,NNW,335,9.0,11.0,78,0.00,,SKC,0.00,VWS V14.01,2013-01-31 05:00:00,
2013-01-30 23:01:00,4.3,-1.0,29.80,North,350,6.0,6.0,78,0.00,,SKC,0.00,VWS V14.01,2013-01-31 05:01:00,
2013-01-30 23:06:00,4.3,-1.0,29.80,NW,322,3.0,10.0,78,0.00,,SKC,0.00,VWS V14.01,2013-01-31 05:06:00,
2013-01-30 23:11:00,4.3,-1.3,29.80,North,350,6.0,8.0,77,0.00,,SKC,0.00,VWS V14.01,2013-01-31 05:11:00,
2013-01-30 23:16:00,4.1,-1.5,29.80,NNW,342,8.0,10.0,77,0.00,,SKC,0.00,VWS V14.01,2013-01-31 05:16:00,
2013-01-30 23:21:00,3.9,-2.0,29.80,NNW,340,4.0,11.0,76,0.00,,SKC,0.00,VWS V14.01,2013-01-31 05:21:00,
2013-01-30 23:26:00,3.9,-2.0,29.80,NW,306,5.0,12.0,76,0.00,,SKC,0.00,VWS V14.01,2013-01-31 05:26:00,
2013-01-30 23:31:00,3.9,-2.0,29.80,NNW,342,9.0,11.0,76,0.00,,SKC,0.00,VWS V14.01,2013-01-31 05:31:00,
2013-01-30 23:36:00,3.9,-2.2,29.80,North,0,3.0,12.0,75,0.00,,SKC,0.00,VWS V14.01,2013-01-31 05:36:00,
2013-01-30 23:41:00,3.9,-2.2,29.80,NW,309,1.0,6.0,75,0.00,,SKC,0.00,VWS V14.01,2013-01-31 05:41:00,
2013-01-30 23:46:00,3.7,-2.4,29.81,NNW,342,2.0,11.0,75,0.00,,SKC,0.00,VWS V14.01,2013-01-31 05:46:00,
2013-01-30 23:51:00,3.5,-2.3,29.81,NNW,337,8.0,8.0,76,0.00,,SKC,0.00,VWS V14.01,2013-01-31 05:51:00,
2013-01-30 23:56:00,3.4,-2.5,29.81,North,357,7.0,11.0,76,0.00,,SKC,0.00,VWS V14.01,2013-01-31 05:56:00,